Location: Rio Negrinho
(26.2394°S, 49.4999°W)
Time: 20:09:33
(UTC+00:00)

Envisat - Pass Details

Date: 02 August 2021
Orbit: 764 x 766 km, 98.2° (Epoch: 17 September)

Event Time Altitude Azimuth Distance (km) Brightness Sun altitude
Rises 21:42:45 0° 195° (SSW) 3,256 6.3 -11.7°
Reaches altitude 10° 21:46:15 10° 220° (SW) 2,321 5.8 -12.4°
Maximum altitude 21:48:40 14° 248° (WSW) 2,076 6.1 -12.9°
Drops below altitude 10° 21:51:06 10° 277° (W) 2,309 6.9 -13.5°
Sets 21:54:35 0° 302° (WNW) 3,226 7.7 -14.2°
